| time (UTC) | temp C | wind direction | speed KPH | gust KPH | rain 1hr cm | rain 24hr cm | rain mn cm | humidity % | barometer mb |
| 20260504214556 | 23 | 265 | 4.8 | 20.9 | 0.00 | 0.00 | 0.00 | 33 | 1009.1 |
| 20260504213053 | 23 | 289 | 4.8 | 14.5 | 0.00 | 0.00 | 0.00 | 30 | 1009.3 |
| 20260504211553 | 23 | 0 | 3.2 | 17.7 | 0.00 | 0.00 | 0.00 | 30 | 1009.3 |
| 20260504210054 | 23 | 273 | 4.8 | 17.7 | 0.00 | 0.00 | 0.00 | 31 | 1009.3 |
| 20260504204602 | 23 | 0 | 3.2 | 20.9 | 0.00 | 0.00 | 0.00 | 30 | 1009.2 |
| 20260504203102 | 23 | 254 | 3.2 | 16.1 | 0.00 | 0.00 | 0.00 | 29 | 1009.2 |
| 20260504201552 | 23 | 272 | 1.6 | 12.9 | 0.00 | 0.00 | 0.00 | 31 | 1009.3 |
| 20260504200054 | 23 | 229 | 1.6 | 14.5 | 0.00 | 0.00 | 0.00 | 30 | 1009.3 |
| 20260504194553 | 23 | 276 | 4.8 | 14.5 | 0.00 | 0.00 | 0.00 | 31 | 1009.4 |
| 20260504193056 | 23 | 256 | 1.6 | 16.1 | 0.00 | 0.00 | 0.00 | 32 | 1009.5 |
| 20260504191606 | 23 | 0 | 1.6 | 12.9 | 0.00 | 0.00 | 0.00 | 34 | 1009.6 |
| 20260504190112 | 23 | 306 | 1.6 | 9.7 | 0.00 | 0.00 | 0.00 | 34 | 1009.9 |
| 20260504184555 | 22 | 310 | 1.6 | 16.1 | 0.00 | 0.00 | 0.00 | 34 | 1010.1 |
| 20260504183101 | 22 | 313 | 1.6 | 19.3 | 0.00 | 0.00 | 0.00 | 34 | 1010.4 |
| 20260504181557 | 22 | 264 | 1.6 | 17.7 | 0.00 | 0.00 | 0.00 | 34 | 1010.6 |
| 20260504180059 | 22 | 260 | 1.6 | 16.1 | 0.00 | 0.00 | 0.00 | 35 | 1010.6 |
| 20260504174554 | 21 | 272 | 3.2 | 14.5 | 0.00 | 0.00 | 0.00 | 34 | 1011.0 |
| 20260504173057 | 21 | 255 | 3.2 | 19.3 | 0.00 | 0.00 | 0.00 | 36 | 1011.0 |
| 20260504171553 | 21 | 258 | 1.6 | 14.5 | 0.00 | 0.00 | 0.00 | 37 | 1011.1 |
| 20260504081553 | 8 | 0 | 0.0 | 4.8 | 0.00 | 0.00 | 0.00 | 60 | 1013.8 |
| 20260504044600 | 10 | 0 | 0.0 | 3.2 | 0.00 | 0.00 | 0.00 | 50 | 1013.4 |
| 20260504043055 | 10 | 0 | 0.0 | 6.4 | 0.00 | 0.00 | 0.00 | 49 | 1013.2 |
| 20260504041601 | 11 | 0 | 0.0 | 4.8 | 0.00 | 0.00 | 0.00 | 48 | 1013.0 |
| 20260504040053 | 11 | 275 | 0.0 | 4.8 | 0.00 | 0.00 | 0.00 | 47 | 1013.1 |
| 20260504034553 | 11 | 0 | 0.0 | 4.8 | 0.00 | 0.00 | 0.00 | 46 | 1012.9 |
| 20260504033054 | 11 | 0 | 0.0 | 6.4 | 0.00 | 0.00 | 0.00 | 46 | 1013.0 |
| 20260504031553 | 11 | 0 | 0.0 | 1.6 | 0.00 | 0.00 | 0.00 | 45 | 1012.7 |
| 20260504030053 | 11 | 0 | 0.0 | 3.2 | 0.00 | 0.00 | 0.00 | 45 | 1012.6 |
| 20260504024616 | 11 | 275 | 0.0 | 6.4 | 0.00 | 0.00 | 0.00 | 45 | 1012.7 |
| 20260504023054 | 11 | 0 | 0.0 | 1.6 | 0.00 | 0.00 | 0.00 | 44 | 1012.7 |
| 20260504021557 | 12 | 0 | 0.0 | 3.2 | 0.00 | 0.00 | 0.00 | 43 | 1012.6 |
| 20260504020055 | 12 | 275 | 0.0 | 4.8 | 0.00 | 0.00 | 0.00 | 42 | 1012.7 |
| 20260504014604 | 12 | 275 | 0.0 | 4.8 | 0.00 | 0.00 | 0.00 | 42 | 1012.5 |
| 20260504013058 | 11 | 275 | 0.0 | 1.6 | 0.00 | 0.00 | 0.00 | 43 | 1012.5 |
| 20260504011555 | 11 | 0 | 0.0 | 1.6 | 0.00 | 0.00 | 0.00 | 42 | 1012.3 |
| 20260504010104 | 12 | 0 | 0.0 | 0.0 | 0.00 | 0.00 | 0.00 | 41 | 1012.1 |
| 20260504004600 | 13 | 0 | 0.0 | 0.0 | 0.00 | 0.00 | 0.00 | 38 | 1011.9 |
| 20260504003055 | 13 | 0 | 0.0 | 6.4 | 0.00 | 0.00 | 0.00 | 36 | 1011.6 |
| 20260504001554 | 14 | 0 | 0.0 | 6.4 | 0.00 | 0.00 | 0.00 | 34 | 1011.2 |
| 20260504000135 | 14 | 275 | 3.2 | 9.7 | 0.00 | 0.00 | 0.00 | 33 | 1011.0 |
| 20260503234601 | 15 | 273 | 1.6 | 12.9 | 0.00 | 0.00 | 0.00 | 31 | 1010.9 |
| 20260503233057 | 15 | 290 | 4.8 | 11.3 | 0.00 | 0.00 | 0.00 | 30 | 1010.8 |
| 20260503231557 | 15 | 0 | 3.2 | 16.1 | 0.00 | 0.00 | 0.00 | 29 | 1010.7 |
| 20260503230058 | 16 | 260 | 4.8 | 12.9 | 0.00 | 0.00 | 0.00 | 29 | 1010.6 |
| 20260503224556 | 16 | 299 | 3.2 | 17.7 | 0.00 | 0.00 | 0.00 | 29 | 1010.6 |
| 20260503223052 | 16 | 292 | 4.8 | 16.1 | 0.00 | 0.00 | 0.00 | 28 | 1010.5 |
| 20260503221558 | 16 | 275 | 6.4 | 19.3 | 0.00 | 0.00 | 0.00 | 28 | 1010.4 |
| 20260503220056 | 16 | 302 | 6.4 | 19.3 | 0.00 | 0.00 | 0.00 | 28 | 1010.4 |